Orbital Elements at Epoch 2459000.5 (2020-May-31.0) TDB
Reference: JPL 12 (heliocentric ecliptic J2000)
Element | Value | Uncertainty (1-sigma) | Units |
e | .1657401202936232 | 1.0397e-07 | |
a | 3.040940139509853 | 3.3306e-08 | au |
q | 2.536934354981782 | 3.0847e-07 | au |
i | 11.64255792465266 | 8.8771e-06 | deg |
node | 344.9009536682397 | 2.9339e-05 | deg |
peri | 34.15912147318812 | 3.7247e-05 | deg |
M | 179.1078111019965 | 2.0248e-05 | deg |
tp | 2458036.843490834073 (2017-Oct-10.34349083) | 0.00010485 | TDB |
period | 1936.913533615658 5.30 | 3.1822e-05 8.712e-08 | d yr |
n | .1858627108294215 | 3.0535e-09 | deg/d |
Q | 3.544945924037923 | 3.8827e-08 | au |
|
| | Orbit Determination Parameters
Additional Information
|